Location: Cortos
(40.7190°N, 4.5893°W)
Time: 04:27:51
(UTC+00:00)

Cosmos 2219 Rocket - Pass Details

Date: 05 July 2020
Orbit: 827 x 848 km, 71.0° (Epoch: 11 August)

Event Time Altitude Azimuth Distance (km) Brightness Sun altitude
Exits shadow 22:12:01 - 212° (SSW) 2,690 4.6 -19.7°
Reaches altitude 10° 22:12:44 10° 214° (SSW) 2,423 4.3 -19.7°
Maximum altitude 22:18:14 65° 296° (WNW) 911 2.5 -20.3°
Drops below altitude 10° 22:23:48 10° 18° (NNE) 2,446 5.2 -20.8°
Sets 22:26:17 0° 21° (NNE) 3,387 5.9 -21.0°
